Lapse_Rate
2.8 2.6 3.4 3.9 5.6 5.4 5.1 5.6 5.7 6.1 6.6 6.6 6.2 6.1 6.0 5.0 3.5 3.0 4.2 4.8 7.5 6.9 6.2 6.4 6.1 5.9 5.5 5.6 5.5 5.4 5.0 5.3 5.6 5.9 5.8 5.9 5.7 5.5 5.2 4.6 4.1 4.1 4.2
2.6 2.5 2.3 3.1 3.8 4.4 4.7 4.6 4.3 5.1 6.4 6.5 6.1 5.7 6.0 5.0 4.0 3.7 4.0 4.9 6.1 7.6 6.4 6.0 6.1 6.2 6.1 6.1 5.5 5.3 5.6 5.7 6.4 6.7 6.2 6.0 5.2 5.1 4.9 4.6 4.2 4.1 4.5
2.7 2.5 2.7 3.0 3.7 3.4 4.0 3.6 3.9 4.3 5.3 6.4 6.3 5.3 5.5 4.5 4.0 4.2 4.0 4.4 5.5 6.0 5.9 6.4 6.1 6.4 6.5 6.1 6.0 5.8 6.0 6.5 6.8 6.9 7.0 5.9 5.9 5.0 4.2 4.3 4.2 4.0 4.2
2.1 2.2 3.0 3.0 3.6 2.7 3.1 3.4 4.0 4.4 5.2 4.6 4.3 4.6 6.3 5.2 4.6 4.2 4.4 4.4 7.3 7.6 5.7 5.1 6.6 6.3 6.4 6.5 6.3 6.3 6.4 6.9 7.2 7.1 7.1 6.4 6.5 5.5 4.2 4.4 4.3 4.0 4.1
1.4 2.1 3.0 3.3 3.6 3.1 3.3 3.4 3.8 4.8 4.9 4.7 5.2 5.3 5.4 5.1 4.7 4.4 4.6 4.3 6.8 7.4 7.3 6.4 6.3 6.1 6.3 6.4 6.7 7.2 7.3 7.5 7.8 7.7 7.5 6.9 6.0 5.0 4.5 3.7 3.7 3.6 3.8
1.1 1.8 2.4 3.0 3.5 3.7 3.4 3.9 4.2 4.5 5.3 4.9 5.7 5.4 5.6 5.5 4.9 4.7 4.7 4.2 4.1 6.5 7.0 6.9 6.6 6.7 6.0 6.6 6.9 7.4 8.0 8.1 8.4 7.5 7.6 7.8 5.9 5.2 4.4 4.1 3.8 3.5 3.5
1.4 1.7 1.9 3.0 3.3 3.7 3.4 4.5 5.1 5.5 5.2 5.2 4.9 4.6 4.6 5.0 5.2 5.1 4.6 4.1 3.9 3.7 5.6 6.9 7.1 7.7 6.9 6.7 7.1 7.6 8.5 8.5 8.5 8.1 8.0 7.8 6.6 4.9 4.3 4.1 3.9 3.9 3.9
2.3 1.7 2.0 2.8 2.9 3.5 4.0 4.9 4.9 4.9 5.5 5.4 5.4 4.7 5.2 4.6 4.4 5.1 4.9 4.3 4.1 3.8 4.1 6.2 6.6 6.7 8.6 8.1 8.1 7.5 8.5 8.4 8.8 8.5 7.9 7.8 7.2 5.6 5.1 4.1 4.1 3.9 4.0
2.9 2.5 3.4 3.0 2.7 3.4 3.7 4.9 5.6 4.8 5.2 5.6 5.1 5.3 5.2 5.9 4.9 4.3 4.6 4.9 4.4 4.0 4.4 6.0 6.2 6.5 7.4 9.0 8.4 7.9 8.3 7.8 7.9 8.1 8.1 7.8 7.4 4.6 4.4 4.2 4.2 4.2 4.2
1.6 2.0 3.8 3.3 3.3 3.5 4.1 5.1 5.8 5.1 5.4 5.5 5.5 6.4 5.7 6.1 6.4 5.5 4.2 4.6 4.4 4.2 4.2 5.8 6.5 6.5 7.4 8.3 8.4 8.7 8.3 8.0 7.8 7.6 8.0 8.0 7.0 4.9 4.6 4.6 4.5 4.4 4.5
1.1 1.3 1.0 4.7 3.2 3.7 4.7 5.5 5.2 5.3 5.4 5.5 5.3 4.6 4.8 5.3 5.5 5.4 5.2 4.8 4.0 4.6 4.4 4.6 6.2 6.7 6.9 7.4 7.7 7.9 7.8 7.7 7.5 7.6 7.9 8.2 7.9 6.1 5.4 4.9 4.7 4.8 4.9
0.9 3.2 3.3 2.5 4.1 4.0 5.0 5.3 5.9 5.6 5.4 5.8 5.6 5.4 5.8 5.9 6.3 6.8 5.9 5.5 4.9 4.0 3.9 4.4 5.1 5.9 6.9 6.8 7.2 7.0 6.5 7.3 7.4 7.2 7.5 7.9 7.8 7.8 6.8 6.2 5.6 5.6 5.5
1.9 1.7 1.7 4.0 4.5 4.8 4.8 5.8 5.2 5.8 5.3 5.7 5.6 5.7 5.5 6.2 7.8 7.5 6.5 5.5 5.6 4.1 4.6 4.5 5.0 5.5 6.0 6.0 6.7 5.7 5.7 6.7 6.8 6.6 6.5 6.4 6.5 6.9 7.2 7.3 7.1 6.2 5.9
1.7 1.9 1.7 4.2 4.7 5.4 4.5 4.9 4.8 5.6 5.3 5.3 5.7 5.6 5.7 5.8 5.9 6.8 7.7 7.3 5.8 4.9 4.5 4.5 4.3 5.7 5.6 5.4 5.7 4.9 6.1 5.5 6.1 6.0 6.0 5.9 6.0 6.1 6.0 5.9 5.9 5.9 6.2
2.0 2.8 3.2 3.4 4.4 4.4 4.8 4.9 5.0 5.2 5.1 5.5 5.2 5.3 5.4 5.4 5.5 5.8 6.5 6.5 7.1 6.1 6.0 4.9 4.8 5.4 5.8 5.7 5.2 4.7 4.9 5.3 4.9 5.5 5.5 5.4 5.5 5.4 5.3 5.7 5.6 5.5 5.6
2.9 4.0 3.1 4.2 4.0 4.1 5.5 5.3 4.9 5.1 5.2 5.4 5.4 5.2 5.2 5.3 5.5 5.2 5.0 5.6 6.0 6.2 6.4 5.0 5.5 5.4 5.2 4.9 5.2 5.1 5.4 5.2 4.1 4.3 4.1 3.6 3.2 2.9 3.0 3.3 3.7 3.7 3.5
1.7 5.1 4.7 4.3 5.2 5.1 5.0 4.7 4.9 5.0 5.3 5.4 5.2 5.0 5.1 5.1 4.7 4.7 4.6 4.9 4.8 5.3 5.3 4.4 6.0 5.9 5.5 5.8 5.5 4.9 5.6 5.5 2.4 1.3 1.7 1.8 1.5 1.3 1.1 1.2 1.1 1.2 0.7
2.2 4.9 5.2 4.7 4.7 4.2 4.1 4.6 4.9 4.7 5.3 5.3 5.1 5.2 5.0 4.9 4.6 4.8 4.4 4.4 5.1 4.8 5.5 4.7 4.8 5.3 5.6 4.7 5.2 5.5 5.8 3.2 0.3 -2.6 -2.3 -2.0 -1.9 -1.9 -2.0 -2.0 -2.1 -2.1 -2.2
2.2 4.5 4.5 4.8 4.6 4.5 4.5 4.1 4.8 5.3 5.6 5.2 5.7 5.7 5.4 4.8 4.7 4.7 4.7 4.6 4.9 4.8 5.4 5.3 4.8 5.0 5.6 5.6 5.1 3.1 0.8 -0.2 -1.8 -2.4 -2.7 -2.7 -2.7 -2.8 -2.7 -2.7 -2.9 -2.9 -3.0
3.9 5.0 4.4 3.6 3.2 2.7 3.4 4.4 4.6 5.0 4.9 5.2 5.0 4.9 5.1 5.3 5.3 4.9 5.1 4.7 5.0 4.8 5.5 6.8 5.3 4.7 5.8 5.3 6.0 3.0 2.1 1.2 -0.3 -1.5 -2.9 -2.8 -2.8 -2.7 -2.8 -2.7 -2.6 -2.8 -3.0
1.3 0.9 0.0 -0.2 -0.4 -0.4 -0.8 0.0 2.7 4.5 5.1 3.0 0.9 -0.4 -1.5 2.2 2.9 4.0 5.0 5.0 4.6 5.0 5.8 5.7 5.2 4.6 4.6 4.1 4.8 4.2 2.7 -0.1 -1.5 -0.9 -1.9 -2.4 -2.6 -2.6 -2.5 -2.4 -2.6 -3.2 -3.4
-2.0 -2.6 -2.6 -2.6 -2.3 -2.5 -3.9 -2.4 1.2 1.8 0.8 0.1 -0.9 -1.9 -2.6 -2.4 -2.9 -2.8 -2.4 -1.5 3.8 5.0 5.4 5.3 4.9 5.1 4.8 2.8 1.4 3.2 0.4 0.3 0.7 -2.5 -2.4 -2.9 -2.4 -1.9 -2.2 -2.1 -2.1 -2.5 -2.6
-3.7 -3.8 -3.5 -3.3 -4.1 -4.4 -4.2 -3.1 -2.5 -1.6 -1.6 -2.2 -2.4 -2.7 -2.8 -3.5 -3.4 -3.3 -4.2 -4.5 -4.6 -4.4 -2.6 3.6 4.4 2.8 0.6 -0.7 -0.3 0.5 1.3 0.6 -1.8 -3.7 -1.1 -1.2 -1.6 -1.5 -1.7 -1.3 -0.9 -0.6 -0.4
-2.7 -3.9 -3.8 -3.3 -4.3 -4.9 -4.5 -3.4 -3.3 -2.6 -3.6 -4.1 -4.0 -4.0 -3.7 -4.0 -4.0 -3.9 -3.7 -4.5 -5.0 -5.2 -5.3 -5.0 -4.6 -5.0 -4.8 -4.3 -2.9 -1.8 -2.7 -4.4 -4.2 -4.3 -2.6 -0.5 -0.4 -0.7 -0.9 -1.1 0.2 0.8 0.7
0.8 -2.8 -2.9 -3.0 -3.0 -3.0 -3.4 -3.3 -2.4 -3.4 -3.9 -4.2 -4.0 -4.0 -3.7 -3.9 -3.9 -3.5 -4.9 -5.4 -6.6 -6.9 -6.6 -5.8 -5.7 -5.9 -5.4 -5.0 -3.5 -2.2 -2.1 -1.1 -2.0 -2.9 -3.6 -0.2 -0.1 -0.4 -0.0 0.0 -0.1 1.3 1.4
0.3 0.7 -0.7 -1.5 -1.5 -1.6 -1.1 -0.8 -1.4 -2.4 -3.3 -3.7 -3.4 -3.3 -3.3 -3.3 -3.5 -3.9 -3.8 -4.2 -5.4 -6.1 -6.3 -6.2 -7.5 -6.8 -6.8 -5.7 -5.1 -4.1 -1.3 -0.5 -2.1 -0.8 -2.6 -0.1 0.6 1.5 2.8 2.8 2.6 3.2 3.1
Wind_Speed
9 6 7 10 11 12 11 9 10 11 12 14 14 12 11 10 6 4 8 15 29 29 28 26 23 23 24 24 24 22 19 17 15 13 14 13 12 13 12 13 12 12 12
7 7 7 7 8 12 10 10 7 8 8 10 10 11 12 11 6 2 5 14 26 29 27 25 24 24 24 24 24 24 21 19 17 15 13 11 12 12 13 12 12 12 11
9 8 7 7 8 11 12 8 7 6 6 8 10 7 11 10 8 2 5 13 16 26 25 20 22 22 22 24 24 23 21 19 17 14 12 13 13 13 13 12 12 13 12
13 7 7 7 12 10 8 6 6 6 7 6 5 6 9 9 9 7 5 9 13 17 25 29 26 21 22 22 23 22 20 19 14 14 14 15 13 12 12 12 11 11 12
15 8 8 8 14 8 7 7 6 7 7 6 7 6 6 7 6 4 5 4 13 16 17 23 22 21 21 23 24 21 19 18 16 17 17 15 13 14 14 14 14 12 11
16 9 8 9 9 9 7 7 8 7 7 6 6 6 6 5 5 5 4 4 5 11 16 17 17 18 22 22 23 22 18 17 17 18 19 18 16 14 15 15 14 14 13
14 12 8 9 10 9 10 10 8 11 5 7 4 3 2 4 5 5 5 4 5 6 9 15 15 15 21 23 20 21 21 19 19 19 20 21 19 17 18 16 14 13 13
13 12 12 11 11 8 11 11 9 5 4 9 4 4 3 1 1 6 5 6 7 8 6 13 16 17 17 19 19 23 21 22 21 19 20 21 20 18 17 15 15 15 15
14 12 13 11 11 10 9 11 11 10 7 8 9 4 3 3 2 1 7 7 8 6 7 10 15 16 16 17 18 20 21 23 22 22 21 21 19 17 17 17 16 16 16
11 8 6 11 12 8 10 11 10 9 8 9 7 7 2 5 4 3 2 5 8 10 8 7 14 16 17 17 17 18 19 21 24 24 22 21 20 19 19 20 20 18 18
16 15 10 14 12 10 11 14 11 10 9 7 6 4 2 2 4 3 3 3 2 8 8 8 10 15 18 18 17 18 23 23 21 20 21 23 23 24 25 24 22 21 20
11 15 19 15 12 11 11 12 12 13 10 8 7 7 9 6 6 4 2 8 8 4 5 5 6 10 16 16 18 18 23 26 24 21 20 19 21 24 25 24 23 21 20
11 16 18 17 12 12 10 13 11 12 11 10 10 8 6 7 6 8 4 5 4 2 3 5 6 11 16 16 18 21 22 26 27 26 23 23 22 21 21 22 22 22 21
9 11 16 14 13 14 10 10 8 9 10 9 11 10 8 7 6 6 9 7 3 2 3 4 7 10 16 17 19 22 18 26 28 27 27 26 25 25 24 23 22 19 21
5 11 13 12 12 11 12 13 7 9 9 10 10 10 8 8 8 8 8 8 9 6 9 5 4 12 15 16 19 18 19 19 27 29 29 28 27 27 27 26 25 23 23
6 6 8 10 10 10 13 11 9 9 9 7 7 10 10 8 9 9 8 8 7 7 7 3 5 5 12 13 17 19 18 16 17 25 25 25 22 20 19 18 17 16 15
13 6 8 10 10 10 10 9 9 8 9 8 8 9 12 12 9 9 9 8 7 4 5 2 2 6 10 13 12 16 12 10 6 4 13 13 12 10 8 7 6 5 5
12 9 9 9 12 9 8 7 7 6 8 8 8 9 13 11 14 13 11 13 10 6 5 7 2 4 5 11 10 10 9 12 13 19 22 21 19 20 21 22 21 19 19
14 9 9 11 9 7 6 5 7 9 9 8 9 10 10 11 13 10 13 12 10 7 5 4 3 2 2 8 11 9 9 15 18 22 25 24 24 23 22 22 22 22 20
14 11 8 7 6 5 3 4 5 6 6 8 8 9 12 14 16 14 13 14 11 9 8 7 5 5 8 6 8 8 5 5 7 13 18 20 21 22 22 22 21 21 21
12 10 11 9 8 6 4 2 4 5 5 4 2 4 7 6 14 16 11 12 13 11 9 8 7 4 4 4 9 5 4 6 5 3 7 8 10 12 14 18 20 19 19
11 11 10 9 9 6 11 5 5 5 6 4 4 6 7 11 15 19 19 14 8 13 12 8 7 7 7 3 3 6 6 4 4 3 5 4 7 6 11 14 17 17 18
13 12 11 11 10 9 12 11 11 8 8 8 7 6 6 7 8 12 18 22 22 19 11 5 10 4 4 3 5 4 4 3 3 3 5 4 3 6 8 12 14 14 15
10 11 12 11 11 10 15 12 13 11 11 11 9 9 8 9 9 7 13 15 15 16 11 8 10 7 6 4 4 3 5 9 8 5 2 3 2 4 6 9 12 12 13
11 13 12 13 13 12 17 12 9 11 12 13 11 11 9 10 13 14 12 16 14 13 22 27 27 26 21 19 8 9 7 8 3 2 4 3 3 3 2 4 10 13 16
12 11 14 14 19 13 18 15 10 7 12 10 12 13 20 14 19 18 12 11 13 8 10 11 10 14 20 20 22 10 3 5 4 2 1 3 4 4 4 3 7 7 8
Wind_Direction
198 179 184 181 189 186 188 194 192 191 197 203 203 198 192 192 167 146 258 260 212 184 171 170 168 163 166 163 151 149 151 152 152 159 157 156 152 152 145 157 149 150 156
194 185 178 178 182 181 174 181 187 191 200 206 208 203 201 191 142 117 290 284 206 190 170 171 172 174 178 167 156 157 160 163 159 165 172 175 165 164 159 158 158 160 165
195 184 179 178 181 173 165 161 177 181 204 210 211 190 193 161 139 155 285 280 205 179 169 182 176 179 181 173 164 161 167 166 163 174 173 170 170 158 155 169 171 163 165
188 182 186 183 184 164 162 165 169 177 195 195 188 196 195 172 154 161 233 260 198 181 173 180 190 180 181 174 167 166 168 162 162 171 169 166 168 160 170 173 170 180 182
182 186 189 186 182 172 170 169 174 182 183 194 190 174 177 179 173 146 208 227 228 184 178 183 180 181 183 175 169 166 170 163 169 174 168 169 172 180 180 177 179 184 188
176 185 187 185 178 178 171 173 179 184 191 183 176 168 178 176 169 176 199 180 244 215 182 178 177 189 185 182 175 165 173 173 179 178 175 178 181 186 190 193 193 190 196
180 186 182 185 180 181 176 175 179 182 169 158 123 105 83 171 195 194 184 168 190 224 182 182 184 193 192 190 189 174 181 188 187 186 184 183 184 189 195 198 199 205 209
185 182 181 185 178 177 175 178 178 172 178 172 156 126 154 101 200 204 192 193 183 181 191 194 189 191 193 193 197 181 179 191 190 194 191 186 185 192 202 204 210 211 216
183 181 192 181 177 178 180 182 183 178 184 187 168 140 153 186 132 179 198 198 177 184 186 196 191 189 195 199 189 188 189 196 193 195 196 187 188 197 203 214 217 220 225
163 172 204 194 189 181 181 185 189 186 181 187 179 203 201 151 172 167 202 199 192 190 185 196 194 196 196 200 200 194 194 203 201 202 194 190 192 202 207 217 221 223 228
171 169 141 226 201 185 191 186 184 187 195 187 187 166 166 177 165 148 152 175 209 199 190 181 196 201 200 202 200 200 200 206 212 214 207 196 199 204 213 215 217 222 230
186 177 182 185 197 191 193 187 187 197 196 196 191 183 200 188 186 168 151 191 191 182 173 168 191 202 204 205 207 206 210 210 213 217 220 217 214 211 217 218 220 223 231
184 180 176 191 185 189 188 190 194 195 194 197 192 203 199 226 205 209 173 169 171 146 165 192 199 204 204 205 212 207 212 215 217 222 224 226 227 228 228 230 230 225 229
182 175 186 180 176 181 180 189 196 206 195 197 196 200 203 209 212 202 208 186 177 165 177 167 194 209 202 204 212 206 211 219 223 226 228 230 233 236 239 240 241 238 240
161 164 175 163 169 170 185 186 197 196 196 196 194 197 201 203 202 205 212 199 189 182 194 178 165 210 200 204 210 201 209 216 222 229 231 233 235 239 243 245 248 249 250
124 169 165 161 166 178 190 190 188 198 195 197 197 199 205 204 204 203 197 200 211 182 183 131 205 173 193 200 209 204 209 206 217 228 232 234 237 240 243 246 248 251 255
111 200 194 174 182 189 190 186 188 188 197 204 200 202 207 203 200 199 194 185 181 169 154 127 160 178 188 203 198 205 203 193 108 239 230 231 224 216 211 206 194 176 127
130 190 197 185 192 175 163 176 181 186 203 211 218 219 217 211 205 197 187 183 178 160 159 153 153 158 189 194 185 168 135 109 91 71 86 94 99 105 108 104 98 95 96
131 179 173 174 163 156 162 186 210 221 224 222 231 231 227 209 203 195 189 183 177 167 170 144 144 148 141 154 139 108 102 97 93 85 81 83 86 88 91 95 98 100 97
131 161 148 117 107 99 122 182 199 207 219 231 238 240 236 221 207 192 189 177 172 173 182 178 157 151 155 157 148 134 123 117 101 94 83 90 92 93 93 94 95 97 98
108 113 105 86 76 65 34 283 225 231 224 154 66 48 14 249 197 185 180 175 168 176 180 178 168 158 169 152 169 148 120 124 101 132 112 98 99 93 92 90 95 96 97
86 84 82 87 74 49 352 293 191 102 82 84 81 55 42 37 69 75 74 75 169 174 178 175 168 178 180 138 125 154 133 149 151 130 104 88 101 94 88 89 96 96 94
79 75 69 69 68 56 24 44 77 86 81 70 60 56 69 53 57 92 82 73 60 49 47 175 174 157 144 146 136 132 144 128 110 113 122 100 81 83 65 91 98 98 97
44 74 68 63 64 48 45 38 76 84 79 68 61 59 61 63 58 62 93 80 66 54 39 59 82 85 69 73 74 82 102 102 90 68 24 113 119 89 76 63 91 99 98
34 56 61 58 59 53 50 44 63 81 77 67 60 61 64 67 70 83 81 93 84 73 64 74 75 77 69 61 78 115 122 130 98 58 13 105 135 111 99 78 69 96 98
57 50 58 55 53 53 52 55 68 80 82 77 67 59 61 74 73 76 85 96 91 82 83 65 62 53 56 57 50 46 92 122 122 120 13 105 142 159 141 114 114 116 98